Location: Zagreb
(45.8150°N, 15.9819°E)
Time: 19:23:25
(UTC+02:00)

ISS - Visible Passes

Search period start: 30 September 2023 00:00
Search period end: 10 October 2023 00:00
Orbit: 414 x 421 km, 51.6° (Epoch: 30 September)

Date Brightness Start Highest point End Pass type
(mag) Time Alt. Az. Time Alt. Az. Time Alt. Az.
30 Sep -3.4 20:06:17 10° WNW 20:09:35 59° SSW 20:10:43 35° SSE visible
01 Oct -3.8 19:18:10 10° WNW 19:21:32 89° NNE 19:24:44 11° ESE visible
01 Oct -1.2 20:55:50 10° W 20:57:40 15° SW 20:57:40 15° SW visible
02 Oct -1.8 20:07:08 10° W 20:09:55 24° SW 20:11:44 16° S visible
03 Oct -2.5 19:18:41 10° WNW 19:21:50 38° SW 19:24:57 10° SSE visible
05 Oct -0.9 19:19:29 10° W 19:21:38 16° SW 19:23:47 10° S visible
